Regional Weather Roundup
Issued by NWS Green Bay, WI

Home | Current Version | Previous Version | Text Only | Print | Product List | Glossary On
Versions: 1 2 3 4 5 6 7 8 9 10 11 12 13 14 15 16 17 18 19 20 21 22 23 24 25 26 27 28 29 30 31 32 33 34 35 36 37 38 39 40 41 42 43 44 45 46 47 48 49 50
000
ASUS43 KGRB 021111
RWRGRB

NORTH-CENTRAL AND NORTHEAST WISCONSIN REGIONAL WEATHER ROUNDUP
NATIONAL WEATHER SERVICE GREEN BAY WI
600 AM CDT TUE JUN 02 2015

WIZ005-009-010>012-018-019-021200-
NORTH CENTRAL WISCONSIN

CITY           SKY/WX    TMP DP  RH WIND       PRES   REMARKS
IRONWOOD       PTCLDY    48  37  66 S9        30.12S
MANITOWISH WTR CLEAR     43  39  85 S5        30.18R
ARBOR VITAE    CLEAR     46  39  75 S3        30.18S
EAGLE RIVER    CLEAR     36  36 100 CALM      30.20R
LAND O LAKES   CLEAR     34  34 100 CALM      30.20S
RHINELANDER    CLEAR     39  35  86 CALM      30.20S
PHILLIPS       CLEAR     46  38  74 S3        30.16S
ANTIGO         CLEAR     39  36  91 CALM      30.20S
TOMAHAWK       CLEAR     34  33  96 CALM      30.19S
MERRILL        CLEAR     36  35  99 CALM      30.20S
$$

WIZ013-073-021200-
NORTHEAST WISCONSIN

CITY           SKY/WX    TMP DP  RH WIND       PRES   REMARKS
IRON MOUNTAIN  CLEAR     34  31  88 CALM      30.19F
MARINETTE      CLEAR     39  34  81 CALM      30.21R
OCONTO         CLEAR     37  37 100 CALM      30.21R
$$

WIZ017-030-035>037-045-021200-
CENTRAL WISCONSIN

CITY           SKY/WX    TMP DP  RH WIND       PRES   REMARKS
MEDFORD        CLEAR     44  37  76 S3        30.18R
WAUSAU         CLEAR     41  38  89 E5        30.18F
MOSINEE        CLEAR     39  37  93 SE3       30.19F
MARSHFIELD     CLEAR     43  36  76 CALM      30.18F
WISC RAPIDS    CLEAR     42  36  79 SE3       30.20F
STEVENS POINT  CLEAR     35  34  95 CALM      30.20F
WAUPACA        PTCLDY    41  40  97 CALM      30.21S
SHAWANO        CLEAR     41  40  95 CALM      30.21S
CLINTONVILLE   CLEAR     41  37  87 CALM      30.21S
$$

WIZ038-039-048-051-021200-
FOX VALLEY

CITY           SKY/WX    TMP DP  RH WIND       PRES   REMARKS
NWS GREEN BAY  CLEAR     42  40  92 CALM      30.21S
APPLETON       PTCLDY    43  36  75 VRB3      30.20F
OSHKOSH        PTCLDY    42  38  85 CALM      30.20R
FOND DU LAC    PTCLDY    41  39  93 CALM      30.21R
$$

WIZ022-050-052-021200-
EAST CENTRAL WISCONSIN

CITY           SKY/WX    TMP DP  RH WIND       PRES   REMARKS
STURGEON BAY   CLEAR     39  34  81 CALM      30.23R
MANITOWOC      CLEAR     41  39  93 CALM      30.22R
SHEBOYGAN      CLEAR     40  38  93 CALM      30.22R
$$

LMZ563-521-522-541>543-021200-
LAKESHORE

STATION/POSITION TIME  TEMP    WIND        PRES    VSBY  WAVE
                       AIR SEA DIR/SP/G                  HT/PER
                 (UTC) (F)     (DEG/KT/KT) (MB)    (MI)  (FT/S)
SHEBOYGAN LKSHOR 1100   47     310/  1/  1 1023.9R
KEWAUNEE LKSHORE 1000   40      CALM  /  3 1021.9
ALGOMA MARINA    1039             CALM       N/A
NORTHPORT PIER   1100   49      CALM  / 12 1023.0R
N MID LAKE BUOY  1050   43 37  200/  6/  6 1023.8R         0
CHAMBERS ISLAND  1000   39      CALM  /  1 1023.0R
MENOMINEE LKSHOR 1000   46     310/  2/  3 1023.3
$$


USA.gov is the U.S. government's official web portal to all federal, state and local government web resources and services.